Regional Weather Roundup
Issued by NWS Kansas City/Pleasant Hill, MO

Home | Current Version | Previous Version | Text Only | Print | Product List | Glossary On
Versions: 1 2 3 4 5 6 7 8 9 10 11 12 13 14 15 16 17 18 19 20 21 22 23 24 25 26 27 28
000
ASUS43 KEAX 272110
RWREAX

WEATHER ROUNDUP FOR EASTERN KANSAS AND NORTHWEST MISSOURI
NATIONAL WEATHER SERVICE KANSAS CITY/PLEASANT HILL MO
400 PM CDT SAT AUG 27 2016

KSZ040-057-103>105-MOZ028-029-037-043-272200-
...KANSAS CITY METROPOLITAN AREA...

CITY           SKY/WX    TMP DP  RH WIND       PRES   REMARKS
K.C. INTL      PTSUNNY   87  70  56 CALM      30.00F HX  92
K.C. DOWNTOWN  MOSUNNY   87  71  58 CALM      29.98F HX  93
LEES SUMMIT    PTSUNNY   86  71  60 S7        30.01F HX  91
OLATHE - IXD   PTSUNNY   85  73  67 S7        30.01F HX  91
OLATHE - OJC   SUNNY     86  72  62 S8        30.01F HX  92
LAWRENCE       PTSUNNY   86  73  65 CALM      29.99F HX  93

$$

MOZ001>008-011>017-020>025-030>033-038>040-044>046-053-054-272200-
...NORTHERN AND CENTRAL MISSOURI...

CITY           SKY/WX    TMP DP  RH WIND       PRES   REMARKS
ST. JOSEPH     SUNNY     83  70  64 SW5       29.99F
MOSBY          CLOUDY    86  68  54 CALM      30.00S
WHITEMAN AFB   PTSUNNY   88  71  57 SW8       30.00F HX  93
CLINTON        MOSUNNY   88  72  58 CALM      30.02S HAZE    HX  94
SEDALIA        SUNNY     89  69  51 VRB6      30.03S HX  93
WARSAW         NOT AVBL
CHILLICOTHE    NOT AVBL
KIRKSVILLE     MOSUNNY   86  69  56 W6        30.02F HX  90

$$

MOZ041-047>049-056>058-063>065-088>090-097-272200-
...EASTERN AND SOUTHERN MISSOURI...

CITY           SKY/WX    TMP DP  RH WIND       PRES   REMARKS
ST. LOUIS INTL PTSUNNY   92  70  48 S8        30.02F HX  97
SPIRIT OF STL  PTSUNNY   91  73  55 SW8       30.00F HX  99
COLUMBIA       MOSUNNY   86  72  62 S6        30.03S HX  92
JEFFERSON CITY PTSUNNY   88  71  57 SE7       30.00F HX  94
ROLLA          PTSUNNY   85  72  65 SW3       30.03F HX  91
OSAGE BEACH    PTSUNNY   80  69  69 SE7       30.04S
SPRINGFIELD    CLOUDY    86  69  56 SW3       30.03F HX  90
BRANSON        PTSUNNY   84  72  65 SE12      30.06F
JOPLIN         SUNNY     88  69  53 SW6       30.01F HX  92
WEST PLAINS    MOSUNNY   86  69  56 S6        30.07F HX  90

$$

IAZ060-094-KSZ022-034>040-054-083-096-NEZ052-066-093-272200-
...KANSAS...SOUTHEAST NEBRASKA AND IOWA...

CITY           SKY/WX    TMP DP  RH WIND       PRES   REMARKS
TOPEKA         MOSUNNY   86  70  58 VRB3      29.99F HX  90
MANHATTAN      MOSUNNY   85  71  63 E3        29.99F HX  90
EMPORIA        MOSUNNY   86  71  60 S8        29.99F HX  91
CHANUTE        MOSUNNY   90  71  53 S5        29.98F HX  96
WICHITA        MOSUNNY   88  68  51 SE5       29.97F HX  91
OMAHA          MOSUNNY   84  65  52 SW8       29.99F
LINCOLN        SUNNY     85  63  47 CALM      30.00F
FALLS CITY     MOSUNNY   84  69  60 SW6       29.99F
LAMONI         MOSUNNY   81  70  69 SW7       30.02S
DES MOINES     MOSUNNY   80  69  69 VRB3      30.00S

$$





USA.gov is the U.S. government's official web portal to all federal, state and local government web resources and services.